TimeCDT,TemperatureF,Dew PointF,Humidity,Sea Level PressureIn,VisibilityMPH,Wind Direction,Wind SpeedMPH,Gust SpeedMPH,PrecipitationIn,Events,Conditions,WindDirDegrees,DateUTC
12:56 AM,57.0,52.0,83,30.11,6.0,Calm,Calm,-,N/A,,Haze,0,2013-04-23 05:56:00
1:56 AM,55.9,52.0,87,30.10,4.0,Calm,Calm,-,N/A,,Clear,0,2013-04-23 06:56:00
2:56 AM,55.9,52.0,87,30.09,6.0,Calm,Calm,-,N/A,,Mostly Cloudy,0,2013-04-23 07:56:00
3:56 AM,57.9,53.1,84,30.10,7.0,Calm,Calm,-,N/A,,Overcast,0,2013-04-23 08:56:00
4:56 AM,60.1,54.0,80,30.11,7.0,Calm,Calm,-,N/A,,Overcast,0,2013-04-23 09:56:00
5:56 AM,60.1,54.0,80,30.12,8.0,Calm,Calm,-,0.00,,Overcast,0,2013-04-23 10:56:00
6:56 AM,59.0,54.0,83,30.14,7.0,Calm,Calm,-,N/A,,Mostly Cloudy,0,2013-04-23 11:56:00
7:56 AM,63.0,55.9,78,30.14,9.0,SE,6.9,-,N/A,,Mostly Cloudy,130,2013-04-23 12:56:00
8:56 AM,66.0,55.9,70,30.15,10.0,Variable,4.6,-,N/A,,Overcast,0,2013-04-23 13:56:00
9:56 AM,70.0,53.1,55,30.15,10.0,Variable,5.8,-,N/A,,Overcast,0,2013-04-23 14:56:00
10:56 AM,71.1,55.0,57,30.15,10.0,Variable,6.9,-,N/A,,Overcast,0,2013-04-23 15:56:00
11:31 AM,71.6,53.6,53,30.16,10.0,SE,4.6,-,N/A,,Mostly Cloudy,140,2013-04-23 16:31:00
11:56 AM,72.0,55.0,55,30.14,10.0,SSE,8.1,-,N/A,,Overcast,150,2013-04-23 16:56:00
12:56 PM,73.0,55.0,53,30.12,10.0,SSE,5.8,-,N/A,,Overcast,160,2013-04-23 17:56:00
1:56 PM,73.9,55.0,52,30.11,10.0,Calm,Calm,-,N/A,,Overcast,0,2013-04-23 18:56:00
2:56 PM,77.0,55.0,47,30.09,10.0,SSE,4.6,-,N/A,,Overcast,150,2013-04-23 19:56:00
3:56 PM,75.9,55.0,48,30.07,10.0,Calm,Calm,-,N/A,,Mostly Cloudy,0,2013-04-23 20:56:00
4:56 PM,78.1,54.0,43,30.05,10.0,Calm,Calm,-,N/A,,Clear,0,2013-04-23 21:56:00
5:56 PM,78.1,55.9,46,30.05,10.0,Calm,Calm,-,N/A,,Clear,0,2013-04-23 22:56:00
6:56 PM,73.9,57.9,57,30.04,10.0,Calm,Calm,-,N/A,,Clear,0,2013-04-23 23:56:00
7:56 PM,69.1,57.9,68,30.06,10.0,SSW,3.5,-,N/A,,Mostly Cloudy,200,2013-04-24 00:56:00
8:56 PM,69.1,57.9,68,30.09,10.0,Variable,3.5,-,N/A,,Partly Cloudy,0,2013-04-24 01:56:00
9:56 PM,68.0,57.9,70,30.09,10.0,Calm,Calm,-,N/A,,Mostly Cloudy,0,2013-04-24 02:56:00
10:56 PM,66.0,57.9,75,30.09,10.0,Calm,Calm,-,N/A,,Clear,0,2013-04-24 03:56:00
11:56 PM,62.1,55.9,80,30.09,10.0,Calm,Calm,-,N/A,,Clear,0,2013-04-24 04:56:00